Flag for Germany Weather past 2 weeks in Schwedt/Oder, Brandenburg, Germany

Now
34 °F

Partly cloudy.


Feels Like: 27 °F
Forecast: 30 / 36 °F
Wind: 8 mph from Southwest

Location: Szczecin Airport

Current Time: Feb 1, 2015 at 6:42:55 PM

Latest Report: Feb 1, 2015 at 6:00 PM


Visibility: 4 mi

Pressure: 29.21 "Hg

Humidity: 93%

Dew point: 32 °F

Location of Schwedt/OderLocation

Historic Weather in Schwedt/Oder — Graph

°F

Schwedt/Oder temperature yesterday

Maximum temperature yesterday: 34 °F (at 12:00 AM)
Minimum temperature yesterday: 27 °F (at 10:30 PM)
Average temperature yesterday: 31 °F

Past Weeks' High & Low Weather Summary

 TemperatureHumidityPressure
High39 °F (Jan 28, 2:30 PM)100% (Jan 17, 11:00 PM)30.27 "Hg (Jan 17, 11:00 PM)
Low23 °F (Jan 18, 4:30 AM)65% (Jan 29, 11:30 AM)28.71 "Hg (Jan 30, 9:00 PM)
Average32 °F93%29.74 "Hg
* Reported Jan 17 6:00 PM — Feb 1 6:00 PM, Schwedt/Oder, Weather by CustomWeather, © 2014

Note: Actual official high and low records may vary slightly from our data, if they occured in-between our weather recording intervals... More about our weather records

Advertising

Schwedt/Oder weather history for previous 24 hours

 ConditionsComfort  
Time TempWeatherWind HumidityBarometerVisibility
6:00 PM
Feb 1
34 °FPartly cloudy.8 mph93%29.21 "Hg4 mi
5:30 PM34 °FFog.7 mph93%29.18 "Hg2 mi
5:00 PM32 °FIce fog.7 mph100%29.18 "Hg2 mi
4:30 PM34 °FFog.7 mph93%29.18 "Hg2 mi
4:00 PM34 °FFog.7 mph93%29.18 "Hg2 mi
3:30 PM34 °FFog.6 mph87%29.18 "Hg2 mi
3:00 PM32 °FPartly sunny.3 mph93%29.18 "Hg4 mi
2:30 PM32 °FScattered clouds.6 mph93%29.18 "Hg5 mi
2:00 PM32 °FScattered clouds.7 mph87%29.15 "Hg5 mi
1:30 PM32 °FScattered clouds.7 mph87%29.15 "Hg5 mi
1:00 PM32 °FPassing clouds.6 mph93%29.15 "Hg5 mi
12:30 PM32 °FPassing clouds.6 mph87%29.15 "Hg5 mi
12:00 PM32 °FClear.6 mph87%29.15 "Hg5 mi
11:30 AM32 °FScattered clouds.6 mph87%29.15 "Hg5 mi
11:00 AM32 °FClear.5 mph87%29.15 "Hg5 mi
10:30 AM30 °FClear.6 mph93%29.12 "Hg4 mi
10:00 AM30 °FClear.7 mph93%29.12 "Hg4 mi
9:30 AM28 °FClear.5 mph100%29.12 "Hg4 mi
9:00 AM28 °FClear.5 mph93%29.09 "Hg4 mi
8:30 AM28 °FClear.5 mph100%29.09 "Hg4 mi
8:00 AM28 °FClear.5 mph100%29.09 "Hg4 mi
7:30 AM28 °FIce fog.5 mph100%29.06 "Hg2 mi
7:00 AM28 °FIce fog.3 mph93%29.06 "Hg2 mi
6:30 AM28 °FIce fog.3 mph93%29.06 "Hg2 mi
6:00 AM27 °FIce fog.2 mph100%29.03 "Hg2 mi
5:30 AM25 °FIce fog.2 mph100%29.03 "Hg2 mi
5:00 AM25 °FIce fog.2 mph100%29.03 "Hg2 mi
4:30 AM25 °FIce fog.3 mph93%29.03 "Hg2 mi
4:00 AM25 °FIce fog.3 mph93%29.03 "Hg2 mi
3:30 AM25 °FIce fog.5 mph93%29.03 "Hg2 mi
3:00 AM25 °FIce fog.5 mph93%29.03 "Hg2 mi
2:30 AM25 °FIce fog.3 mph100%29.03 "Hg2 mi
2:00 AM25 °FIce fog.5 mph93%29.00 "Hg2 mi
1:30 AM27 °FIce fog.5 mph93%29.00 "Hg3 mi
1:00 AM25 °FIce fog.5 mph100%29.00 "Hg3 mi
12:30 AM27 °FIce fog.5 mph93%29.00 "Hg3 mi
12:00 AM27 °FPassing clouds.5 mph93%29.00 "Hg4 mi
11:30 PM
Jan 31
27 °FClear.5 mph93%29.00 "Hg4 mi
11:00 PM27 °FClear.3 mph100%29.00 "Hg4 mi
10:30 PM27 °FClear.5 mph100%28.97 "Hg4 mi
10:00 PM28 °FClear.5 mph93%28.97 "Hg4 mi
9:30 PM28 °FPassing clouds.6 mph93%28.97 "Hg4 mi
9:00 PM28 °FPassing clouds.6 mph93%28.97 "Hg4 mi
8:30 PM28 °FPassing clouds.6 mph100%28.94 "Hg4 mi
8:00 PM30 °FPassing clouds.7 mph93%28.94 "HgN/A
7:30 PM30 °FPassing clouds.8 mph93%28.94 "HgN/A
7:00 PM30 °FPassing clouds.8 mph93%28.94 "HgN/A
6:30 PM30 °FLight snow. Partly cloudy.9 mph100%28.94 "Hg5 mi
6:00 PM30 °FLight snow. Partly cloudy.9 mph100%28.91 "Hg5 mi
Weather by CustomWeather, © 2014

See weather overviewHow to use our weather pages